Location: Firdgum
(53.2488°N, 5.5615°E)
Time: 10:26:12
(UTC+00:00)

CZ-4C R/B - Pass Details

Date: 08 December 2019
Orbit: 647 x 1355 km, 63.4° (Epoch: 19 January)

Event Time Altitude Azimuth Distance (km) Brightness Sun altitude
Exits shadow 02:41:49 36° 96° (E) 1,809 4.1 -42.6°
Drops below altitude 10° 02:46:26 10° 112° (ESE) 3,250 5.6 -42.0°
Sets 02:49:29 0° 116° (ESE) 4,283 6.3 -41.6°
